Hourly Weather Roundup
Issued by NWS Central Illinois

Home | Current Version | Previous Version | Text Only | Print | Product List | Glossary On
Versions: 1 2 3 4 5 6 7 8 9 10 11 12 13 14 15 16 17 18 19 20 21 22 23 24 25 26 27 28 29 30 31 32 33 34 35 36 37 38 39 40 41 42 43 44 45 46 47 48 49 50
000
NZUS43 KILX 212010
HWRILX

Area Weather Roundup
National Weather Service Lincoln IL
200 PM CST WED FEB 21 2018

NOTE:  "FAIR" indicates few or no clouds below 12,000 feet, with
       no sigificant weather and/or obstructions to visibility.


CITY           SKY/WX    TMP DP  RH WIND       PRES   REMARKS
Bloomington    CLOUDY    30  27  88 N15G21    30.52F WCI  19
Champaign      CLOUDY    33  31  92 N17       30.49F WCI  22
Danville       CLOUDY    33  30  87 N15       30.47F WCI  23
Decatur        CLOUDY    33  31  92 N15       30.50F WCI  23
Effingham      CLOUDY    35  33  92 N8G17     30.49S WCI  29
Flora          CLOUDY    37  33  89 N14       30.47S WCI  28
Galesburg      FAIR      29  23  78 N10       30.59S WCI  20
Jacksonville   CLOUDY    28  24  86 N10       30.54F WCI  18
Lacon          PTSUNNY   30  26  86 N8        30.56F WCI  22
Lawrenceville  LGT RAIN  39  37  92 N13       30.44F FOG     WCI  31
Litchfield     CLOUDY    29  28  93 N6        30.51R WCI  23
$$


CITY           SKY/WX    TMP DP  RH WIND       PRES   REMARKS
Lincoln        CLOUDY    32  29  90 N10       30.54F WCI  24
Macomb         FAIR      28  24  84 N10       30.59F WCI  19
Mattoon        CLOUDY    35  32  88 N18       30.46F WCI  24
Mt Carmel AP   LGT RAIN  38  36  92 N9        30.42F WCI  32
Olney-Noble AP CLOUDY    36  34  93 N12       30.48R FOG     WCI  27
Paris AP       CLOUDY    36  32  85 N13       30.50S WCI  28
Peoria         CLOUDY    29  24  82 N9        30.57S WCI  20
Pontiac        PTSUNNY   32  30  92 N7        30.56S WCI  25
Rantoul        CLOUDY    35  32  88 N9        30.50F WCI  28
Robinson       DRIZZLE   37  36  96 N12       30.46F WCI  29
Springfield    CLOUDY    31  27  85 N13       30.54F WCI  21
Taylorville    CLOUDY    31  28  90 CALM      30.53R
$$

...REGIONAL REPORTS...


CITY           SKY/WX    TMP DP  RH WIND       PRES   REMARKS
Chicago O`Hare CLOUDY    32  18  56 N9        30.56F WCI  24
Kankakee       FAIR      33  26  77 NE16      30.55F WCI  22
Moline         FAIR      29  17  61 N12       30.60F WCI  19
Mount Sterling PTSUNNY   28  24  88 N5        30.55F WCI  22
Mount Vernon   CLOUDY    34  32  92 VRB6      30.48R WCI  29
Pittsfield     CLOUDY    28  25  87 N8        30.55F WCI  20
Quincy         FAIR      28  22  78 N14       30.54F WCI  17
Rockford       CLOUDY    28  16  60 N9        30.61S WCI  19
$$


CITY           SKY/WX    TMP DP  RH WIND       PRES   REMARKS
Burlington     FAIR      28  17  63 N12       30.58F WCI  18
Cedar Rapids   FAIR      27  10  49 N10       30.61S WCI  17
Des Moines     PTSUNNY   25  15  66 N9        30.61F WCI  15
Kirksville     FAIR      27  20  75 N16       30.54F WCI  15
Ottumwa        FAIR      26  17  68 N10       30.60F WCI  16
St Louis       CLOUDY    29  26  89 N13G22    30.52R WCI  19
$$


CITY           SKY/WX    TMP DP  RH WIND       PRES   REMARKS
Terre Haute    CLOUDY    37  33  85 N15       30.47S WCI  28
Evansville     LGT RAIN  41  40  96 N6        30.42F
Indianapolis   LGT RAIN  38  34  85 N12       30.46F WCI  30
Lafayette      CLOUDY    34  30  85 N15       30.49F WCI  24
Madison        CLOUDY    24  10  55 NW7       30.62R WCI  16
Milwaukee      CLOUDY    30  16  56 NW7       30.59R WCI  23
$$





USA.gov is the U.S. government's official web portal to all federal, state and local government web resources and services.